AO-07 1 07530U 74089B 20282.56933538 -.00000026 00000-0 12368-3 0 9991 2 07530 101.8152 251.7333 0012261 144.7245 328.7960 12.53645431100165 UO-11 1 14781U 84021B 20282.76385514 .00000062 00000-0 13613-4 0 9995 2 14781 97.5911 289.1037 0008367 178.7530 181.3707 14.83197443969623 LO-19 1 20442U 90005G 20282.42018333 .00000000 00000-0 16549-4 0 9993 2 20442 098.7033 230.1071 0011683 177.0925 183.0329 14.32962529604737 HUBBLE 1 20580U 90037B 20282.49911038 .00000502 00000-0 19548-4 0 9991 2 20580 028.4700 291.9447 0002480 224.5961 269.0124 15.09445693473056 MET-2/21 1 22782U 93055A 20282.60509463 -.00000004 00000-0 -16589-4 0 9999 2 22782 082.5480 143.8046 0021291 278.6475 136.2022 13.83829176368696 AO-27 1 22825U 93061C 20282.57645516 -.00000015 00000-0 12421-4 0 9992 2 22825 098.9268 287.8922 0009264 052.4824 307.7198 14.30094175409986 IO-26 1 22826U 93061D 20282.74616763 -.00000008 00000-0 14753-4 0 9996 2 22826 98.9208 288.0005 0009625 40.6418 319.5480 14.30430774410497 FO-29 1 24278U 96046B 20282.52452467 -.00000011 00000-0 22170-4 0 9996 2 24278 098.5890 017.5834 0351288 082.1245 281.9611 13.53099743192173 NOAA-15 1 25338U 98030A 20282.54299156 .00000014 00000-0 24376-4 0 9997 2 25338 098.7102 306.9800 0009384 296.4628 063.5589 14.25992782165093 GO-32 1 25397U 98043D 20282.45515031 -.00000004 00000-0 17668-4 0 9995 2 25397 098.7370 223.1346 0002380 089.8390 270.3061 14.23691771155633 ISS 1 25544U 98067A 20282.90621528 -.00000450 00000-0 00000 0 0 9996 2 25544 51.6441 145.7937 0001381 11.8831 164.4125 15.49290421249649 NO-44 1 26931U 01043C 20282.84672069 -.00000028 00000-0 21063-4 0 9992 2 26931 67.0515 209.7668 0006679 276.2215 83.8126 14.30589769993368 SO-50 1 27607U 02058C 20282.61207435 .00000009 00000-0 21712-4 0 9995 2 27607 064.5573 028.3926 0034720 138.0771 222.2999 14.75665654957428 CO-55 1 27844U 03031E 20282.55645353 .00000044 00000-0 39327-4 0 9998 2 27844 98.6836 288.5899 0011011 88.4281 271.8158 14.22259918896212 CO-57 1 27848U 03031J 20282.54568286 .00000030 00000-0 33577-4 0 9996 2 27848 098.6901 289.1445 0010872 099.8235 260.4171 14.21844018896019 RS-22 1 27939U 03042A 20282.68782105 .00000126 00000-0 31288-4 0 9995 2 27939 98.1074 56.1094 0012907 2.2145 357.9117 14.66892062910613 NOAA-18 1 28654U 05018A 20282.56843509 .00000062 00000-0 58107-4 0 9996 2 28654 099.0315 339.9878 0013282 272.2542 087.7109 14.12545028792889 CO-58 1 28895U 05043F 20282.33928628 .00000152 00000-0 38045-4 0 9991 2 28895 098.0260 055.6369 0015493 285.9880 073.9616 14.63806646797127 Falconsat-3 1 30776U 07006E 20282.43377809 .00003148 00000-0 82609-4 0 9996 2 30776 035.4344 276.9258 0002076 156.1961 203.8862 15.38327816754246 CO-65 1 32785U 08021C 20282.46866771 .00000219 00000-0 29177-4 0 9997 2 32785 097.5839 265.5755 0014400 115.5999 244.6708 14.88526217674687 AAUSAT2 1 32788U 08021F 20282.69166959 .00000855 00000-0 82674-4 0 9993 2 32788 97.4956 282.1824 0012786 41.8359 318.3837 14.95172897676332 DO-64 1 32789U 08021G 20282.67990077 .00001118 00000-0 76598-4 0 9999 2 32789 97.4081 321.4756 0010396 289.8189 70.1919 15.07984403678977 CO-66 1 32791U 08021J 20282.47490875 .00000337 00000-0 39256-4 0 9993 2 32791 097.5495 271.6838 0014842 086.3214 273.9702 14.91126563675221 RS-30 1 32953U 08025A 20282.71761267 .00000037 00000-0 19437-3 0 9995 2 32953 82.5059 207.4670 0018768 163.2886 196.8815 12.43098464561701 PRISM 1 33493U 09002B 20282.40864889 .00001228 00000-0 11158-3 0 9996 2 33493 098.1538 227.4395 0016364 045.8987 314.3577 14.97167431636605 NOAA-19 1 33591U 09005A 20282.72217671 -.00000004 00000-0 23316-4 0 9996 2 33591 99.1970 291.0235 0014854 116.8209 243.4482 14.12434112601387 TISAT-1 1 36799U 10035E 20282.55407118 .00000360 00000-0 42148-4 0 9990 2 36799 98.2027 97.2424 0011434 324.7725 35.2735 14.91440788555988 JUGNU 1 37839U 11058B 20282.43156684 .00000313 00000-0 24632-4 0 9994 2 37839 019.9622 317.6178 0018810 193.2820 194.1109 14.12690444464786 SRMSAT 1 37841U 11058D 20282.60124513 .00000362 00000-0 54106-4 0 9995 2 37841 19.9734 23.2555 0011979 46.8932 340.9363 14.10674991464250 AO-71 1 37854U 11061E 20282.33597881 .00001260 00000-0 70184-4 0 9997 2 37854 101.7124 071.9055 0157474 086.0215 275.8982 15.07592293488488 HRBE 1 37855U 11061F 20282.42135970 .00001844 00000-0 97283-4 0 9992 2 37855 101.7249 069.1346 0170005 099.5922 262.4544 15.06622844488210 HORYU-2 1 38340U 12025D 20282.16006216 .00000165 00000-0 31878-4 0 9997 2 38340 098.2686 338.3581 0012279 046.5921 313.6308 14.75898146441172 RS-40 1 38735U 12041C 20282.49585372 .00000033 00000-0 17221-3 0 9993 2 38735 082.4722 290.1746 0016162 277.8384 082.0865 12.42581019371897 BEESAT-3 1 39135U 13015F 20282.53576297 .00000848 00000-0 50448-4 0 9994 2 39135 64.8664 296.1504 0029633 225.2155 134.6561 15.18410086412770 BEESAT-2 1 39136U 13015G 20282.49697862 .00001211 00000-0 68698-4 0 9993 2 39136 064.8739 301.6574 0035305 267.6051 092.1033 15.17801507412279 ZACUBE-1 1 39417U 13066B 20282.71327745 .00000203 00000-0 31835-4 0 9999 2 39417 97.5725 274.4750 0057260 266.5174 92.9489 14.81330230371806 TRITON-1 1 39427U 13066M 20282.62367742 .00000296 00000-0 54614-4 0 9993 2 39427 97.7390 237.3414 0115065 76.2620 285.1363 14.68055916368467 GOMX-1 1 39430U 13066Q 20282.72572286 .00000121 00000-0 30916-4 0 9995 2 39430 97.7954 214.4401 0150256 187.2644 172.6385 14.59444076366325 LO-74 1 39440U 13066AA 20282.49610082 .00000270 00000-0 44495-4 0 9999 2 39440 097.6435 258.8193 0079489 334.2445 025.4816 14.76066042369251 AO-73 1 39444U 13066AE 20282.57797574 .00000270 00000-0 39492-4 0 9995 2 39444 97.5658 276.6358 0056347 258.3827 101.1060 14.82194911370710 SPROUT 1 39770U 14029E 20282.87332946 .00000903 00000-0 10473-3 0 9998 2 39770 97.9036 28.7179 0008383 321.8427 38.2191 14.87897579345927 DUCHIFAT-1 1 40021U 14033M 20282.56557234 .00000585 00000-0 65024-4 0 9998 2 40021 097.9464 214.5175 0011428 276.4443 083.5474 14.90995802342747 NANOSATCBR1 1 40024U 14033Q 20282.71911167 .00000282 00000-0 35057-4 0 9994 2 40024 97.9293 210.6752 0010758 281.3261 78.6748 14.90151828342624 DTUSAT-2 1 40030U 14033W 20282.53584173 .00000307 00000-0 38830-4 0 9994 2 40030 097.9017 204.0436 0010514 286.3259 073.6801 14.88773437341833 EO-80 1 40032U 14033Y 20282.35689055 .00000267 00000-0 34617-4 0 9995 2 40032 97.9024 203.8683 0010447 287.8349 72.1728 14.88724543342304 ANTELSAT 1 40034U 14033AA 20282.54242876 .00000198 00000-0 36547-4 0 9991 2 40034 097.7010 132.7446 0058603 354.6980 005.3602 14.74307650338547 VELOX-1 1 40057U 14034E 20282.83727788 .00000343 00000-0 55264-4 0 9998 2 40057 98.2964 63.0191 0011722 137.9823 222.2293 14.77941021338385 DAURIA DX 1 1 40071U 14037C 20282.85749694 .00000091 00000-0 19143-4 0 9995 2 40071 98.4628 107.5640 0009304 128.5892 231.6156 14.81397169338046 HODOYOSHI-1 1 40299U 14070B 20282.78538559 .00000770 00000-0 34419-4 0 9999 2 40299 97.3142 356.8503 0013604 149.2577 359.0782 15.24200891329078 CHUBUSAT-1 1 40300U 14070C 20282.78775050 .00000743 00000-0 34734-4 0 9991 2 40300 97.2769 348.5034 0019628 170.0087 328.8588 15.22652499328757 QSAT-EOS 1 40301U 14070D 20282.76082593 .00002253 00000-0 86225-4 0 9993 2 40301 97.2839 354.5838 0025818 143.4712 11.8868 15.27296475329228 FIREBIRD FU3 1 40377U 15003B 20282.47037686 .00001688 00000-0 67873-4 0 9993 2 40377 099.0866 005.7695 0121652 296.7378 062.1444 15.20477050314473 FIREBIRD FU4 1 40378U 15003C 20282.71655508 .00001670 00000-0 67095-4 0 9997 2 40378 99.0869 6.1728 0121800 295.7560 63.1141 15.20497742314527 GRIFEX 1 40379U 15003D 20282.43666150 .00001072 00000-0 48676-4 0 9992 2 40379 99.0915 357.0772 0131320 324.0947 35.1508 15.16715095313973 NO-84 1 40654U 15025D 20282.22977283 .00020590 00000-0 21682-3 0 546 2 40654 54.9821 139.9078 0112851 120.9219 240.2969 15.56693740186574 DEORBITSAIL 1 40719U 15032E 20282.56587898 .00000380 00000-0 60834-4 0 9998 2 40719 097.8539 168.3340 0015519 198.3046 161.7607 14.77085063282798 NUDT-PHONESAT 1 40900U 15049B 20282.69337433 .00002582 00000-0 10768-3 0 9996 2 40900 97.4310 292.6913 0010891 311.6002 140.3187 15.24552411280445 XW-2A 1 40903U 15049E 20282.78036559 .00002539 00000-0 58449-4 0 9995 2 40903 97.2750 331.7613 0011915 204.1069 249.1791 15.43518319283951 XW-2C 1 40906U 15049H 20282.82994206 .00000557 00000-0 32262-4 0 9998 2 40906 97.4813 282.5397 0014366 347.6176 96.3831 15.16205273279430 XW-2D 1 40907U 15049J 20282.81296387 .00000900 00000-0 49606-4 0 9995 2 40907 97.4796 282.2485 0013660 344.9488 138.7466 15.16457135279451 LILACSAT-2 1 40908U 15049K 20282.78365063 .00000572 00000-0 34942-4 0 9992 2 40908 97.4965 280.4165 0015764 356.2585 89.1617 15.14123384279143 XW-2E 1 40909U 15049L 20282.82399512 .00001211 00000-0 61679-4 0 9992 2 40909 97.4666 285.9217 0012585 334.8617 149.0863 15.18650082279734 XW-2F 1 40910U 15049M 20282.87000966 .00001326 00000-0 68154-4 0 9993 2 40910 97.4715 285.0473 0013851 332.9068 112.1949 15.18158824279544 XW-2B 1 40911U 15049N 20282.80258192 .00000998 00000-0 54761-4 0 9996 2 40911 97.4803 282.9366 0013660 345.9343 138.0530 15.16381777279342 DCBB 1 40912U 15049P 20282.82382035 .00001387 00000-0 66405-4 0 9994 2 40912 97.4490 289.2541 0013323 307.4100 177.1357 15.20581154279943 TW-1C 1 40926U 15051B 20282.82923257 .00044164 00000-0 34544-3 0 9997 2 40926 97.0696 335.6435 0004879 42.2382 49.2121 15.71495163284799 TW-1A 1 40928U 15051D 20282.90531314 .00003880 00000-0 89050-4 0 9990 2 40928 97.1023 307.9691 0011599 125.8139 355.0801 15.43233597282866 IO-86 1 40931U 15052B 20282.68418921 .00000655 00000-0 21711-5 0 9996 2 40931 5.9967 247.8736 0012514 79.2451 280.9145 14.76644357272022 LQSat 1 40958U 15057A 20282.61914768 .00000005 00000-0 82599-5 0 9993 2 40958 97.8408 342.2382 0019022 142.9902 217.2623 14.73132700269164 ATHENOXAT-1 1 41168U 15077C 20282.71471752 .00002270 00000-0 82622-4 0 9993 2 41168 14.9890 310.2804 0011172 265.6098 94.2947 15.14618918266530 ChubuSat-2 1 41338U 16012B 20282.53735743 .00000365 00000-0 21542-4 0 9992 2 41338 031.0046 347.5774 0013639 157.2254 202.8988 15.00340653254735 ChubuSat-3 1 41339U 16012C 20282.85235619 .00000366 00000-0 21585-4 0 9993 2 41339 31.0125 343.0768 0012784 167.6546 192.4392 15.00501616254783 Horyu-4 1 41340U 16012D 20282.50886462 .00000558 00000-0 35355-4 0 9998 2 41340 031.0062 331.7754 0013802 191.1606 168.8725 15.01576157254886 OUFTI-1 1 41458U 16025C 20282.29274410 .00003349 00000-0 16854-3 0 9995 2 41458 098.1145 038.9260 0162414 189.2981 170.5230 15.07196498244475 e-st@r-II 1 41459U 16025D 20282.77037291 .00002415 00000-0 12378-3 0 9993 2 41459 98.1152 38.7496 0163969 189.8423 169.9583 15.06737655244508 AAUSAT4 1 41460U 16025E 20282.79627029 .00005201 00000-0 25237-3 0 9995 2 41460 98.1110 41.5231 0152930 177.3072 182.9018 15.09203235244739 LO-87 1 41557U 16033B 20282.81379551 .00001659 00000-0 62775-4 0 9990 2 41557 97.4017 12.3093 0014866 50.6643 65.8059 15.28289035243082 NuSat2 1 41558U 16033C 20282.82716771 .00001835 00000-0 65080-4 0 9999 2 41558 97.4084 15.0589 0013773 47.9566 66.9134 15.30303103243224 Lapan A3 1 41603U 16040E 20282.78734139 .00000199 00000-0 12338-4 0 9991 2 41603 97.2956 332.7029 0013657 158.3997 339.1881 15.19880771238355 Swayam 1 41607U 16040J 20282.69676664 .00001676 00000-0 70772-4 0 9990 2 41607 97.3054 339.3409 0014077 141.9734 218.2501 15.24549875238672 Pratham 1 41783U 16059A 20282.24820295 .00000049 00000-0 18756-4 0 9994 2 41783 98.0039 334.4626 0032651 322.8327 37.0615 14.63077549215372 AlSat 1N 1 41789U 16059G 20282.78311169 .00000096 00000-0 27116-4 0 9996 2 41789 98.0082 338.0687 0027252 308.0245 51.8491 14.64347164215616 ScatSat 1 41790U 16059H 20282.70201870 .00000137 00000-0 45487-4 0 9994 2 41790 98.1525 319.5582 0004785 305.7242 54.3625 14.50931925213643 TY-1 1 41844U 16066D 20282.82960738 .00001053 00000-0 44958-4 0 9990 2 41844 97.4040 289.7437 0013547 309.5527 174.9475 15.25036610217543 Pegasus-1 1 41846U 16066F 20282.58233907 .00000228 00000-0 45907-4 0 9994 2 41846 098.6493 333.7544 0365530 256.2131 099.8132 14.37830086205228 CAS-2T 1 41847U 16066G 20282.54728559 .00000055 00000-0 19525-4 0 9998 2 41847 098.6414 334.1307 0364503 251.8182 104.3008 14.38096481205677 EO-88 1 42017U 17008BX 20282.41848191 .00001763 00000-0 69672-4 0 9991 2 42017 97.3492 348.2871 0004505 286.9361 73.1384 15.26814994202786 CAS-4B 1 42759U 17034B 20282.80510725 .00000242 00000-0 28106-4 0 9993 2 42759 43.0186 124.2334 0010623 18.0989 49.1487 15.09903274183103 CAS-4A 1 42761U 17034D 20282.74060291 .00000312 00000-0 32333-4 0 9992 2 42761 43.0179 123.8118 0011033 19.3378 32.2238 15.09983078183090 UCLSat 1 42765U 17036A 20282.70851861 .00001351 00000-0 58950-4 0 9992 2 42765 97.2883 333.8461 0010898 356.2144 3.9009 15.23778211183237 NIUSat 1 42766U 17036B 20282.69628810 .00000986 00000-0 46184-4 0 9996 2 42766 97.2880 330.9917 0014849 348.6275 11.4623 15.21916161182915 LituanicaSAT 2 1 42768U 17036D 20282.63925326 .00002233 00000-0 93490-4 0 9993 2 42768 97.2945 333.9439 0013691 343.3751 16.7037 15.24498127183082 Aalto 1 1 42775U 17036L 20282.40911814 .00000813 00000-0 38519-4 0 9996 2 42775 097.2858 331.0460 0013306 349.6930 010.4031 15.22006176182853 URSA MAIOR 1 42776U 17036M 20282.71305809 .00000900 00000-0 42073-4 0 9999 2 42776 97.2870 331.6753 0013071 348.3384 11.7548 15.22205071182916 Max Valier Sat 1 42778U 17036P 20282.63437824 .00000989 00000-0 45171-4 0 9994 2 42778 97.2928 333.0753 0011674 352.4072 7.6986 15.22815284182952 Pegasus 1 42784U 17036V 20282.62591843 .00001227 00000-0 54313-4 0 9996 2 42784 97.2889 333.4091 0011498 357.1726 2.9445 15.23452666183003 NUDATSat 1 42787U 17036Y 20282.58178729 .00002490 00000-0 10282-3 0 9997 2 42787 097.2930 335.0361 0011327 353.5786 006.5298 15.24887777182931 SUCHAI 1 1 42788U 17036Z 20282.67350182 .00001468 00000-0 63330-4 0 9990 2 42788 97.2897 334.1524 0010958 355.2808 4.8324 15.24047859183120 SKCUBE 1 42789U 17036AA 20282.40363897 .00001380 00000-0 59986-4 0 9994 2 42789 097.2892 333.7063 0010896 356.8010 003.3156 15.23869365182996 VZLUSAT 1 1 42790U 17036AB 20282.44076041 .00001951 00000-0 81241-4 0 9995 2 42790 097.2918 334.8899 0010217 354.2862 005.8258 15.24862270183068 VENTA 1 1 42791U 17036AC 20282.37933240 .00001414 00000-0 61461-4 0 9997 2 42791 097.2890 333.7181 0010598 357.7783 002.3406 15.23842394182983 Robusta 1B 1 42792U 17036AD 20282.40867318 .00001490 00000-0 64163-4 0 9990 2 42792 97.2895 333.9988 0010476 357.3962 2.7219 15.24072597183029 D-SAT 1 42794U 17036AF 20282.63502329 .00000283 00000-0 29867-4 0 9996 2 42794 97.4854 309.6380 0125688 347.8928 11.9277 14.91334152179563 TechnoSat 1 42829U 17042E 20282.69108265 .00000164 00000-0 21839-4 0 9998 2 42829 97.5015 159.0470 0012659 267.6157 92.3613 14.91140464176166 QIKCOM-1 1 42983U 98067NF 20282.74231246 .00005232 00000-0 63466-4 0 9990 2 42983 51.6375 94.0649 0003951 122.6042 237.5334 15.62507582167992 AO-91 1 43017U 17073E 20282.71205298 .00000910 00000-0 75194-4 0 9991 2 43017 97.7149 190.5420 0257693 41.5238 320.5236 14.79051409155901 EcAMSat 1 43019U 98067NG 20282.69990390 .00011672 00000-0 10727-3 0 9993 2 43019 51.6405 75.8710 0003437 116.3878 243.7471 15.68203792250557 PICSAT 1 43132U 18004X 20282.47028717 .00001500 00000-0 63538-4 0 9991 2 43132 097.4377 353.0783 0009997 025.7618 334.4115 15.24694871152279 AO-92 1 43137U 18004AC 20282.20421744 .00001151 00000-0 49946-4 0 9993 2 43137 097.4360 352.5559 0009747 029.1432 331.0347 15.24338023152225 TianYi 2 1 43155U 18008A 20282.80740413 .00001250 00000-0 76645-4 0 9996 2 43155 97.4365 348.9564 0018980 114.5969 19.1227 15.11789426150040 Zhou Enlai 1 43156U 18008B 20282.80489395 .00001407 00000-0 86944-4 0 9993 2 43156 97.4413 348.7947 0016030 113.4488 19.3032 15.11351877149999 TianYi 6 1 43158U 18008D 20282.79302920 .00001108 00000-0 70205-4 0 9992 2 43158 97.4349 347.6974 0014700 112.0908 27.2600 15.10871689149931 S-Net D 1 43186U 18014G 20282.55738350 .00000764 00000-0 71582-4 0 9990 2 43186 097.6848 188.5061 0010419 197.4619 162.6246 14.96859784146613 S-Net B 1 43187U 18014H 20282.62407668 .00000766 00000-0 71805-4 0 9994 2 43187 97.6845 188.5467 0010434 197.1183 162.9688 14.96859491146620 S-Net A 1 43188U 18014J 20282.28971611 .00000740 00000-0 69575-4 0 9994 2 43188 97.6848 188.2521 0010397 198.5274 161.5570 14.96858774146578 S-Net C 1 43189U 18014K 20282.29018636 .00000755 00000-0 70808-4 0 9992 2 43189 097.6846 188.2132 0010387 198.3232 161.7617 14.96858309145124 FMN 1 1 43192U 18015A 20282.85579681 .00002791 00000-0 11087-3 0 9996 2 43192 97.4582 51.9260 0016908 52.7082 65.7722 15.26055414149193 Shaonian Xing 1 43199U 18015H 20282.84227494 .00002029 00000-0 81211-4 0 9995 2 43199 97.4367 49.8790 0018069 62.3759 60.9733 15.26095510149250 UBAKUSAT 1 43467U 98067NQ 20282.65756294 .00063089 00000-0 27972-3 0 9998 2 43467 51.6337 56.2954 0001444 301.8811 58.2051 15.83776926137991 EnduroSat One 1 43551U 98067NZ 20282.62105409 .00765596 34865-3 64759-3 0 9990 2 43551 51.6230 43.7191 0009293 324.8577 35.1825 16.12913288128388 EQUISat 1 43552U 98067PA 20282.61417898 .00060873 00000-0 28423-3 0 9993 2 43552 051.6298 064.3498 0002686 216.7635 143.3183 15.82688220128071 UiTMSat 1 1 43589U 98067PD 20282.57132101 .00113494 15854-4 36999-3 0 9991 2 43589 051.6311 058.5733 0003826 280.2036 079.8539 15.90533875123888 Maya 1 1 43590U 98067PE 20282.62584952 .00118395 16273-4 38433-3 0 9990 2 43590 51.6257 58.1205 0003633 280.8836 79.1761 15.90594068123824 Bhutan 1 1 43591U 98067PF 20282.64444142 .00122586 16679-4 38885-3 0 9997 2 43591 51.6320 57.6495 0003903 280.3538 79.7028 15.91023784123831 SiriusSat 1 1 43595U 98067PG 20281.83379568 .00053679 00000-0 23108-3 0 9995 2 43595 51.6332 70.1725 0000978 234.7676 125.8023 15.84464279122779 SiriusSat 2 1 43596U 98067PH 20282.28146205 .00101583 00000-0 43069-3 0 9992 2 43596 51.6267 68.7322 0001273 256.8890 103.3957 15.84532602122835 SurfSat 1 43614U 18070B 20282.51241834 .00003260 00000-0 82413-4 0 9999 2 43614 093.0284 201.3918 0012013 258.0537 101.9371 15.39782138115878 CP-7 DAVE 1 43615U 18070C 20282.55553494 .00003048 00000-0 77524-4 0 9993 2 43615 093.0286 201.3927 0012183 257.4771 102.5121 15.39604229115876 ELFIN-B 1 43616U 18070D 20282.55350249 .00004165 00000-0 10035-3 0 9991 2 43616 093.0245 201.3760 0012362 258.5832 101.4035 15.41220689115932 ELFIN-A 1 43617U 18070E 20282.50642950 .00005142 00000-0 12285-3 0 9995 2 43617 93.0300 201.9648 0011799 254.2536 105.7418 15.41474293115937 STARS-Me Mother 1 43640U 98067PQ 20282.04011401 .00022747 00000-0 19796-3 0 9999 2 43640 051.6334 095.9148 0003424 110.4084 249.7281 15.68936271114386 CubeBel 1 1 43666U 18083E 20282.78690194 .00001208 00000-0 61812-4 0 9996 2 43666 97.4815 308.1037 0014318 332.4058 115.1735 15.18470219107813 Changshagaoxin 1 43669U 18083H 20282.78908404 .00001004 00000-0 53487-4 0 9998 2 43669 97.4705 305.9529 0009958 328.4245 118.7362 15.17456253107717 Ten-Koh 1 43677U 18084G 20282.42166170 .00000220 00000-0 28450-4 0 9996 2 43677 097.8948 039.2904 0016907 142.1291 218.1119 14.90325233105768 PO-101 1 43678U 18084H 20282.84182413 .00000503 00000-0 55769-4 0 9998 2 43678 97.8965 41.3225 0010423 154.6770 205.4959 14.91660691105925 IRVINE 01 1 43693U 18088D 20282.49591987 .00003142 00000-0 13015-3 0 9999 2 43693 085.0382 002.1618 0015902 229.4648 130.5211 15.23373720106051 QO-100 1 43700U 18090A 20282.61820740 .00000146 00000-0 00000 0 0 9994 2 43700 0.0117 249.6008 0001936 334.7256 41.7590 1.00270855 7082 Reaktor Hello World 1 43743U 18096AA 20282.69109099 .00001479 00000-0 57171-4 0 9998 2 43743 97.4123 355.9554 0019434 88.2732 272.0733 15.27672832103681 MinXSS-2 1 43758U 18099A 20282.25827476 .00000185 00000-0 21768-4 0 9991 2 43758 097.6968 352.3080 0015964 167.7288 192.4325 14.95744895100811 AO-95 1 43770U 18099N 20282.15210503 .00000696 00000-0 68629-4 0 9995 2 43770 97.6962 351.5152 0014754 174.8775 185.2600 14.95058653100755 RANGE-B 1 43772U 18099Q 20282.29124646 .00000763 00000-0 74372-4 0 9991 2 43772 097.7036 352.2941 0014702 161.7848 198.3902 14.95271336100770 RANGE-A 1 43773U 18099R 20282.74741301 .00000641 00000-0 63702-4 0 9995 2 43773 97.6902 351.6512 0014144 160.0665 200.1111 14.95019300100830 MOVE-II 1 43780U 18099Y 20282.26956772 .00000771 00000-0 74694-4 0 9996 2 43780 097.6967 351.9212 0013897 171.9403 188.2044 14.95504865100773 SNUSat 2 1 43782U 18099AA 20282.42800005 .00000371 00000-0 38821-4 0 9991 2 43782 097.6962 352.0382 0013250 159.9577 200.2167 14.95321556100800 SnugLite 1 43784U 18099AC 20282.25492089 .00000068 00000-0 11290-4 0 9997 2 43784 097.6922 351.6631 0015402 169.8131 190.3405 14.95422825100790 ITASat 1 1 43786U 18099AE 20282.25765280 .00000065 00000-0 11035-4 0 9999 2 43786 097.6975 352.1191 0015522 169.0375 191.1187 14.95385538100797 EAGLET 1 1 43790U 18099AJ 20282.42171798 .00000699 00000-0 67712-4 0 9994 2 43790 097.6969 352.5847 0013783 171.0976 189.0492 14.95769433100531 ESEO 1 43792U 18099AL 20282.24060652 -.00000305 00000-0 -22245-4 0 9990 2 43792 097.6940 352.1718 0013466 169.0955 191.0560 14.95629938100564 CSIM 1 43793U 18099AM 20282.24843703 .00000082 00000-0 12347-4 0 9999 2 43793 097.6943 352.2436 0013426 166.7010 193.4567 14.96159995100552 Astrocast 0.1 1 43798U 18099AS 20282.19867400 .00000200 00000-0 22936-4 0 9995 2 43798 97.6962 352.4883 0013218 152.9221 207.2693 14.95915341100802 JO-97 1 43803U 18099AX 20282.45911572 .00000207 00000-0 23802-4 0 9991 2 43803 097.6936 352.1102 0015528 168.5994 191.5582 14.95575785100825 Suomi 100 1 43804U 18099AY 20282.46090920 .00000253 00000-0 27958-4 0 9995 2 43804 097.6933 352.0953 0015591 168.6525 191.5050 14.95561067100836 Al Farabi 2 1 43805U 18099AZ 20282.75996197 .00000971 00000-0 92182-4 0 9997 2 43805 97.6955 352.5084 0015712 166.7036 193.4602 14.95704677100887 PWSat 2 1 43814U 18099BJ 20282.47334876 .00040842 00000-0 19567-2 0 9991 2 43814 097.7929 005.9948 0010108 167.8250 192.3230 15.18764142100830 CHOMPTT 1 43855U 18104G 20282.50919417 .00001023 00000-0 41445-4 0 9997 2 43855 085.0334 100.3997 0017480 003.1804 356.9546 15.23154002100737 ISAT 1 43879U 18111D 20282.78268969 .00000768 00000-0 72920-4 0 9997 2 43879 97.6930 188.3360 0011493 221.2082 138.8259 14.96327006 95414 UWE-4 1 43880U 18111E 20282.41013044 .00000427 00000-0 42613-4 0 9999 2 43880 097.6935 188.3020 0011267 223.2341 136.7997 14.96562392097386 Sparrow 1 43881U 18111F 20282.52294351 -.00000145 00000-0 -76731-5 0 9992 2 43881 097.6947 188.5018 0011303 221.4703 138.5661 14.96609740097402 Lume 1 1 43908U 18111AJ 20282.68534779 .00001207 00000-0 50480-4 0 9990 2 43908 97.2523 179.2185 0022849 101.6778 258.7026 15.25256615 99288 FO-98 1 43933U 19003B 20282.39269262 .00000779 00000-0 36663-4 0 9999 2 43933 97.2178 327.7377 0017205 198.6731 161.3877 15.22265893 95712 FO-99 1 43937U 19003F 20282.38853503 .00001406 00000-0 59337-4 0 9990 2 43937 97.2141 329.3040 0023838 181.1500 178.9687 15.24645010 95843 Delphini 1 1 44030U 98067PW 20282.75528330 .00032503 00000-0 25522-3 0 9990 2 44030 51.6320 97.6783 0003421 172.6597 187.4452 15.71209749 96299 MYSat 1 1 44045U 18092F 20282.52506937 .00002831 00000-0 86832-4 0 9993 2 44045 051.6384 213.0491 0011344 017.3054 342.8314 15.37268782092677 AstroCast 0.2 1 44083U 19018F 20282.72415467 .00000862 00000-0 40997-4 0 9997 2 44083 97.4092 342.1380 0014421 130.8581 229.3907 15.21764333 84606 AISTechSat 3 1 44103U 19018AB 20282.76187771 .00001004 00000-0 45130-4 0 9991 2 44103 97.3965 342.4173 0014190 142.8481 357.8539 15.23341421 84682 AISat 1 1 44104U 19018AC 20282.16589536 .00001219 00000-0 41013-4 0 9995 2 44104 097.4539 352.4977 0058119 170.9871 189.2428 15.31246836085057 Raavana-1 1 44329U 98067QE 20281.82504198 .00014959 00000-0 18522-3 0 9991 2 44329 051.6376 129.9474 0005419 073.0370 287.1216 15.60300363074530 Uguisu 1 44330U 98067QF 20282.29296268 .00013693 00000-0 17077-3 0 9999 2 44330 51.6356 127.7907 0005363 74.4232 285.7353 15.60197008 74588 NepaliSat-1 1 44331U 98067QG 20282.00848870 .00015516 00000-0 19176-3 0 9999 2 44331 051.6354 128.8933 0005390 076.5659 283.5935 15.60315747074555 Prox-1 1 44339U 19036A 20282.24037342 .00001005 00000-0 18810-3 0 9998 2 44339 023.9994 122.1256 0011175 302.7777 057.1637 14.53146074068556 Oculus-ASR 1 44348U 19036K 20282.51216399 .00008370 00000-0 11993-3 0 9996 2 44348 028.5154 000.7695 0360070 075.5684 288.4581 15.04459251070838 Armadillo 1 44352U 19036P 20282.49028346 .00011887 00000-0 16852-3 0 9997 2 44352 028.5302 353.2824 0344432 086.6648 277.3276 15.08062475070857 NO-104 1 44354U 19036R 20282.49714300 .00008724 00000-0 12281-3 0 9999 2 44354 28.5297 357.1179 0356561 80.1211 283.9434 15.05568670 70853 NO-103 1 44355U 19036S 20282.49729456 .00016995 00000-0 22580-3 0 9990 2 44355 028.5292 341.4446 0327914 105.5657 258.1377 15.12880124071027 CP9 1 44360U 19036X 20282.41534387 .00035150 -54735-5 37095-3 0 9996 2 44360 028.5121 318.1686 0300510 144.5017 217.5972 15.22462593071125 Move-IIb 1 44398U 19038N 20282.81937421 .00001798 00000-0 10601-3 0 9994 2 44398 97.5481 242.6922 0026760 95.8493 264.5789 15.12574064 69719 SONATE 1 44400U 19038Q 20282.62106358 .00000819 00000-0 51062-4 0 9994 2 44400 097.5526 242.4998 0026894 095.9027 264.5288 15.12064519069674 BeeSat 9 1 44412U 19038AC 20282.40897365 .00000981 00000-0 59792-4 0 9996 2 44412 097.5517 242.4181 0024253 101.5149 258.8807 15.12475479069345 JAISAT-1 1 44419U 19038F 20282.45931177 .00001039 00000-0 62297-4 0 9997 2 44419 097.5521 242.8182 0023138 100.2826 260.1015 15.12960055069684 LightSail-2 1 44420U 19036AC 20282.19225539 .00006900 00000-0 14613-2 0 9995 2 44420 24.0076 114.9130 0022010 285.7119 74.0945 14.56739759 66762 Taurus 1 1 44530U 19059C 20282.83292018 .00001539 00000-0 44701-3 0 9994 2 44530 98.5648 4.9954 0015487 177.5705 182.5551 14.45694382 56729 MO-106 1 44830U 19084G 20282.58110525 .04585660 22433-5 10635-2 0 9992 2 44830 96.9324 154.3554 0006487 205.5534 154.5441 16.29891729 48415 TRSI-Sat 1 44831U 19084H 20282.10647892 .01078432 77829-3 87832-3 0 9995 2 44831 96.9539 153.7080 0009156 174.3637 185.7755 16.14288400 48339 Duchifat 3 1 44854U 19089C 20282.85880459 .00000421 00000-0 40385-4 0 9994 2 44854 36.9656 148.1141 0009439 265.0965 94.8686 14.99149072 45321 OPS-SAT 1 44878U 19092F 20282.59981059 .00001012 00000-0 56584-4 0 9998 2 44878 97.4713 103.9881 0013313 330.2640 29.7834 15.15681132 44670 TO-108 1 44881U 19093C 20282.79996940 .00000026 00000-0 10101-4 0 9999 2 44881 97.9502 358.0356 0015953 33.3343 326.8872 14.81419096 43478 FloripaSat 1 1 44885U 19093G 20282.81650395 .00000280 00000-0 41970-4 0 9997 2 44885 97.9505 358.3092 0015713 43.5020 316.7417 14.82090001 43491 RS-44 1 44909U 19096E 20282.48840183 .00000012 00000-0 90763-5 0 9994 2 44909 082.5167 280.2028 0216721 322.4879 036.1264 12.79708412036645 SwampSat-2 1 45115U 19071E 20282.20161664 .00013779 00000-0 37735-3 0 9999 2 45115 051.6394 175.5563 0013199 106.4411 253.8024 15.37527418038455 HO-107 1 45119U 19071J 20282.18553968 .00002691 00000-0 91908-4 0 9996 2 45119 051.6420 178.4006 0012839 099.8640 260.3792 15.33963309038423 Phoenix 1 45258U 98067RB 20282.69622252 .00004931 00000-0 88440-4 0 9997 2 45258 51.6400 144.0121 0006142 48.7669 311.3849 15.51863746 36057 AztechSat-1 1 45261U 98067RE 20282.49477032 .00010464 00000-0 16739-3 0 9992 2 45261 051.6394 143.4273 0007606 065.8936 294.2849 15.53727629036079 QARMAN 1 45263U 98067RG 20282.07201904 .00008682 00000-0 14514-3 0 9999 2 45263 051.6397 146.6004 0007245 060.5747 299.5965 15.52749321036026 Quetzal 1 1 45598U 98067RL 20282.46889120 .00006755 00000-0 11874-3 0 9990 2 45598 051.6407 146.2528 0003628 140.4498 219.6757 15.51757884025334 BY70-2 1 45857U 20042B 20282.78028462 .00000978 00000-0 14820-3 0 9990 2 45857 98.0072 354.9858 0009698 307.2422 52.7898 14.76346026 14419 UPMSat 2 1 46276U 20061E 20282.19190953 .00000532 00000-0 31058-4 0 9996 2 46276 097.4610 354.6933 0002568 122.2454 237.9028 15.16067737005311 AmicalSat 1 46287U 20061R 20282.26713390 .00000568 00000-0 38854-4 0 9992 2 46287 097.5160 354.7386 0001579 214.5953 145.5173 15.09970936005284 /EX